Wetbulb
57.56 58.04 58.26 58.26 58.31 58.42 58.71 58.73 59.09 59.52 59.74 60.00 60.14 59.95 59.65 59.58 59.21 58.88 53.94 59.60 60.86 63.54 63.41 56.14 56.44 57.46 56.16 54.69 53.74 52.31 51.80 49.23 48.18 50.65 56.13 60.70 60.17 62.79 63.61 61.50 62.52 63.44 65.41 67.83 69.85
57.59 57.57 58.04 58.20 58.43 58.29 58.40 58.46 58.94 59.17 59.44 59.74 59.73 59.58 59.20 59.50 57.68 55.14 62.97 65.65 66.46 65.82 56.03 55.65 55.20 56.93 55.85 54.82 54.19 53.30 51.83 49.27 51.24 54.97 59.17 60.29 61.53 61.24 60.77 61.21 61.66 63.49 67.12 68.46 69.52
57.13 57.36 57.73 58.31 58.56 58.19 58.06 58.34 58.90 59.09 59.32 59.43 59.28 58.94 59.02 59.64 53.86 54.72 67.20 67.05 67.26 64.78 57.31 57.38 56.84 55.88 54.06 53.23 52.53 50.94 51.02 50.58 50.88 54.43 61.56 58.82 61.02 61.97 61.01 59.60 62.17 62.38 65.90 67.17 68.42
56.72 57.14 57.64 58.03 58.15 57.99 57.97 58.31 58.63 59.44 59.45 59.07 58.68 58.87 59.79 59.04 47.31 55.78 69.99 69.09 67.96 59.29 56.50 55.03 54.93 53.10 51.76 50.44 50.93 50.05 50.44 50.84 53.27 54.68 58.49 58.42 59.94 60.33 60.46 61.80 65.09 66.67 67.75 67.38 66.96
56.68 56.97 57.39 57.46 57.48 57.58 57.74 57.88 58.38 58.55 58.34 58.17 58.74 59.41 59.51 51.92 53.53 58.55 69.50 67.90 58.64 56.93 55.12 54.31 53.54 52.63 50.67 50.14 50.16 49.22 49.43 50.74 52.70 55.45 56.64 59.07 58.54 58.78 58.94 62.52 67.03 67.45 67.19 66.72 66.76
56.59 56.79 57.00 56.94 57.11 57.27 57.22 56.93 56.94 56.93 57.39 58.11 59.10 59.75 54.88 50.68 56.35 58.86 62.34 60.01 58.53 56.99 55.82 55.06 54.01 53.83 51.80 50.90 51.02 49.96 50.72 51.15 53.15 56.30 57.52 58.51 57.62 58.99 59.06 63.30 65.83 66.23 66.26 66.17 65.04
56.32 56.37 56.50 56.52 56.73 56.93 56.81 56.43 56.14 56.85 57.76 58.95 59.99 59.21 52.01 53.63 55.45 57.65 57.32 56.47 57.66 57.52 54.59 55.21 55.21 54.04 52.79 51.30 51.21 50.19 49.58 51.79 51.31 54.40 56.51 59.32 55.32 55.39 59.85 63.21 63.86 64.57 65.18 64.39 64.20
56.22 56.01 56.08 56.45 56.68 56.93 57.01 56.76 56.78 57.57 58.92 60.12 60.68 56.75 53.37 56.38 57.02 57.57 57.55 56.14 55.64 57.36 55.11 55.60 55.46 54.12 52.99 52.52 51.67 49.74 49.93 48.31 49.34 51.15 55.02 55.88 51.49 55.44 60.41 61.97 62.00 62.97 63.75 64.05 64.53
56.24 55.73 55.77 56.26 56.51 56.68 56.50 56.16 57.28 58.74 59.78 59.92 58.19 54.48 53.14 60.67 56.78 57.44 56.75 56.28 56.42 56.56 57.20 56.36 55.89 53.27 52.95 51.47 49.87 49.82 46.91 46.84 47.02 50.35 52.26 51.41 49.76 55.59 60.19 61.45 61.17 62.35 63.84 64.14 64.70
56.05 55.35 55.20 55.51 56.10 55.96 55.37 55.60 57.39 58.14 59.99 59.36 55.01 53.32 55.58 54.42 56.60 56.92 57.45 57.08 55.79 55.86 55.85 55.69 53.90 52.55 51.48 51.74 45.66 46.41 46.57 47.09 46.88 48.72 48.93 50.68 49.97 55.70 58.76 60.94 61.12 62.22 63.46 63.62 63.93
55.84 55.49 55.10 55.16 55.64 55.13 55.82 57.60 56.99 54.60 55.79 51.09 52.47 52.33 53.35 56.66 56.47 55.87 57.02 56.87 56.86 55.92 52.03 52.35 51.63 48.71 48.85 50.26 49.88 48.83 47.56 46.76 48.46 49.40 48.60 49.04 49.78 53.83 57.39 59.81 59.50 60.72 61.99 62.09 62.55
55.35 55.43 55.35 55.07 55.19 55.03 55.49 56.68 56.14 56.89 53.58 55.02 54.17 52.71 53.95 55.41 53.14 54.95 58.01 55.40 54.32 50.66 51.07 51.50 48.78 49.54 49.86 50.06 49.70 48.89 47.18 46.72 48.37 48.89 49.25 47.25 48.23 53.73 56.13 57.42 59.10 59.84 61.04 61.27 61.92
54.74 54.90 55.02 54.94 54.62 56.54 56.93 57.34 57.81 57.59 53.04 52.78 54.09 53.59 54.73 55.06 52.56 53.89 56.29 54.81 51.74 49.93 49.77 49.44 49.29 50.03 50.19 49.34 48.99 47.99 46.91 46.54 46.72 47.76 47.00 46.56 45.43 49.26 54.00 55.85 57.36 59.17 61.66 61.73 61.48
54.27 54.37 54.57 54.15 55.62 56.33 57.18 58.15 56.63 57.81 48.10 47.71 52.33 54.02 54.11 54.14 52.28 56.33 56.99 56.02 53.00 49.66 50.48 50.40 51.05 49.84 49.46 48.57 48.80 46.26 48.83 47.76 46.58 45.29 43.06 45.36 41.12 45.76 49.15 53.09 55.21 57.37 58.97 59.36 60.08
54.04 54.39 53.96 52.77 56.62 57.31 57.87 56.92 56.81 56.95 39.70 52.29 52.58 56.24 53.47 52.78 53.25 54.61 57.28 56.49 52.00 50.94 51.59 49.27 49.58 49.08 48.57 48.02 49.00 47.66 47.99 46.09 45.07 44.92 43.66 43.96 42.44 43.93 48.55 48.51 52.52 55.94 58.03 59.12 60.29
53.88 53.94 53.49 55.57 56.35 58.26 56.51 57.39 57.65 45.92 38.86 49.00 51.69 50.18 50.85 52.33 52.83 54.23 55.08 57.36 55.51 52.41 52.36 50.40 52.08 51.05 50.20 49.63 48.12 47.76 46.91 44.64 44.96 44.32 40.93 41.61 42.53 44.08 48.24 49.39 51.99 55.45 57.40 58.61 59.28
53.53 53.13 53.84 55.33 57.97 56.03 57.47 56.96 46.79 40.51 47.96 48.15 48.58 49.98 49.50 49.69 51.19 51.94 51.80 52.18 50.90 47.98 47.83 49.49 49.73 51.76 51.79 49.90 50.02 49.90 47.10 41.42 39.64 40.20 39.11 42.38 42.71 45.71 49.06 50.54 53.69 54.99 56.99 57.68 54.80
52.09 52.00 52.59 55.79 55.36 57.19 58.33 52.85 40.95 43.09 47.56 52.94 50.93 48.60 48.02 49.85 50.02 50.68 50.84 50.15 51.16 50.54 48.05 46.57 44.68 49.70 51.29 49.97 47.96 45.17 45.58 41.78 34.09 36.46 38.95 42.53 41.39 46.55 50.28 50.73 51.50 53.66 55.23 52.41 51.79
50.79 58.00 57.79 60.06 55.66 59.19 55.85 45.77 44.36 45.49 51.02 50.54 51.29 47.27 47.29 48.65 49.59 50.76 49.72 50.21 50.86 51.25 48.98 46.36 45.84 50.90 49.47 49.33 49.02 45.68 44.93 45.20 41.57 39.97 39.14 42.52 44.32 49.12 50.47 49.57 50.25 51.00 51.13 50.34 49.99
55.39 57.70 57.89 58.26 59.37 59.50 52.35 43.35 47.80 50.10 52.98 52.35 48.28 49.86 47.01 48.91 48.08 49.33 49.84 51.63 49.87 51.46 52.29 49.30 45.62 48.88 50.45 49.86 48.37 46.99 47.24 43.05 44.07 35.91 34.50 39.98 40.19 43.49 47.64 49.31 49.21 49.60 49.63 49.37 49.79
53.19 55.90 58.09 58.00 60.05 56.07 48.88 47.50 49.24 52.69 53.54 51.66 50.57 49.68 49.64 48.82 49.13 48.80 49.41 50.67 51.99 50.89 52.34 50.49 49.08 47.27 49.55 47.29 46.50 46.08 45.57 43.06 44.00 42.70 37.70 36.26 41.26 47.75 47.92 49.76 50.16 50.35 49.54 49.38 49.81
49.95 50.88 55.27 58.87 53.79 49.35 49.67 49.68 48.59 52.95 54.73 53.37 53.31 51.80 50.73 49.47 49.56 49.37 48.63 50.26 53.17 52.54 49.70 49.41 48.64 45.23 45.24 48.54 48.70 47.93 45.01 44.78 42.23 39.51 40.83 39.71 40.76 48.39 48.38 48.44 49.06 49.59 49.15 49.76 50.42
47.99 48.09 56.29 58.81 49.80 49.57 50.42 50.75 52.40 51.95 52.32 52.26 52.17 52.95 52.22 50.12 48.89 49.64 49.64 51.89 52.94 52.01 50.90 50.58 46.05 42.97 41.82 45.72 48.09 46.24 45.07 44.22 43.96 42.72 41.00 39.67 42.18 47.98 48.02 47.71 48.41 48.68 49.38 49.31 50.53
52.04 48.27 53.27 53.01 50.64 51.19 49.94 49.24 50.63 52.68 52.01 52.66 52.22 52.55 51.22 49.39 50.96 49.18 48.75 50.13 51.35 51.70 52.17 53.50 46.27 44.93 41.09 42.31 45.85 44.15 45.02 45.83 45.13 42.05 41.88 41.52 43.41 47.58 48.41 47.78 48.83 49.23 49.69 50.07 50.43
50.67 48.94 48.96 48.81 48.48 48.13 48.94 49.25 47.96 48.40 51.10 51.86 51.49 51.16 51.31 48.53 48.18 48.44 49.49 49.42 50.06 52.12 49.44 51.25 46.25 45.37 45.56 44.96 45.14 45.17 45.07 45.59 43.96 45.41 41.76 44.04 44.03 47.58 49.19 48.83 49.38 49.83 49.57 49.76 50.20
51.01 49.64 49.22 48.06 47.07 47.49 45.73 47.06 47.27 48.19 49.07 49.48 49.90 50.55 50.47 50.82 51.85 49.27 50.32 50.25 50.16 49.64 49.32 47.99 46.50 45.36 44.54 45.37 45.58 44.26 46.39 46.33 45.89 45.19 44.31 44.68 44.29 48.79 48.41 48.70 48.70 49.46 49.58 49.41 49.76
50.79 51.67 50.33 43.52 46.81 46.69 47.42 47.82 48.20 49.38 50.99 51.49 50.74 50.49 49.80 51.60 53.18 53.74 54.13 54.32 53.99 51.82 49.06 49.03 47.40 45.17 41.86 43.61 44.26 41.80 45.26 45.83 46.22 46.71 45.94 43.18 46.81 48.04 47.69 48.40 49.50 50.61 50.63 49.58 49.31
MSLP
1017.92 1017.83 1017.62 1017.43 1017.25 1017.09 1016.94 1016.72 1016.59 1016.45 1016.28 1015.97 1015.61 1015.32 1015.03 1014.73 1014.25 1014.06 1012.75 1011.52 1011.53 1011.68 1011.78 1011.45 1011.27 1011.28 1011.28 1011.32 1011.67 1011.81 1011.39 1011.31 1011.67 1012.00 1012.65 1013.56 1013.67 1014.33 1014.50 1014.72 1015.46 1015.79 1015.85 1016.46 1017.43
1017.86 1017.61 1017.46 1017.32 1017.18 1017.04 1016.83 1016.68 1016.50 1016.27 1016.07 1015.74 1015.46 1015.24 1014.95 1014.62 1013.93 1012.83 1011.53 1011.53 1011.63 1011.59 1011.47 1011.35 1011.14 1011.06 1011.04 1011.32 1011.50 1011.31 1011.24 1011.17 1011.46 1011.74 1012.25 1013.17 1013.57 1013.95 1014.24 1014.53 1015.26 1015.90 1016.59 1017.08 1017.63
1017.67 1017.47 1017.32 1017.17 1017.09 1016.98 1016.74 1016.52 1016.26 1016.03 1015.81 1015.49 1015.30 1015.00 1014.65 1014.34 1013.31 1011.94 1011.34 1011.35 1011.68 1011.56 1011.49 1011.45 1011.21 1010.89 1010.94 1011.41 1011.61 1011.61 1011.16 1011.50 1011.80 1011.84 1012.09 1012.86 1013.62 1013.89 1013.94 1014.29 1014.51 1014.97 1016.26 1016.98 1017.44
1017.43 1017.23 1017.09 1017.02 1016.95 1016.79 1016.54 1016.27 1015.99 1015.80 1015.56 1015.27 1015.06 1014.69 1014.31 1013.96 1012.85 1011.55 1011.38 1011.30 1011.54 1011.48 1011.37 1011.21 1011.01 1010.94 1011.04 1011.17 1011.69 1011.40 1011.63 1011.76 1012.02 1012.34 1012.56 1012.91 1013.66 1013.92 1014.15 1014.22 1014.81 1015.35 1016.35 1017.00 1017.60
1017.26 1017.07 1016.95 1016.82 1016.73 1016.59 1016.36 1016.08 1015.77 1015.56 1015.33 1015.07 1014.79 1014.40 1014.12 1013.08 1011.87 1011.34 1011.51 1011.60 1011.51 1011.46 1011.23 1011.03 1010.79 1010.82 1010.83 1011.28 1011.57 1011.54 1011.73 1012.06 1012.41 1012.56 1013.12 1013.50 1013.83 1014.24 1014.73 1015.11 1015.24 1015.98 1016.66 1017.09 1017.68
1017.08 1016.92 1016.73 1016.57 1016.54 1016.46 1016.19 1015.88 1015.54 1015.30 1015.07 1014.80 1014.48 1014.18 1013.59 1012.26 1011.08 1011.28 1011.45 1011.61 1011.33 1011.23 1011.09 1011.00 1010.66 1010.75 1010.83 1011.15 1011.30 1011.80 1011.85 1012.34 1012.69 1013.02 1013.57 1013.62 1014.37 1014.75 1015.54 1015.84 1015.87 1016.57 1017.11 1017.64 1018.16
1016.89 1016.72 1016.60 1016.49 1016.38 1016.26 1015.97 1015.65 1015.27 1014.97 1014.72 1014.47 1014.29 1013.88 1013.07 1011.48 1010.90 1011.04 1011.30 1011.03 1010.97 1010.91 1010.74 1010.75 1010.72 1010.73 1010.91 1011.06 1011.72 1011.83 1012.04 1012.24 1012.92 1013.28 1013.73 1013.87 1014.55 1015.15 1016.08 1016.38 1016.65 1017.26 1017.69 1018.16 1018.58
1016.66 1016.60 1016.49 1016.35 1016.24 1015.99 1015.68 1015.31 1014.94 1014.60 1014.37 1014.17 1014.11 1013.68 1012.10 1010.77 1010.81 1010.70 1010.83 1010.72 1010.81 1010.85 1010.83 1010.78 1010.77 1010.84 1011.20 1011.60 1011.69 1011.72 1012.22 1012.44 1013.17 1013.52 1014.34 1014.13 1014.00 1015.45 1016.43 1016.79 1017.11 1017.76 1018.32 1018.59 1018.77
1016.54 1016.43 1016.35 1016.21 1016.00 1015.64 1015.31 1014.96 1014.52 1014.26 1014.08 1013.95 1013.81 1013.09 1011.37 1010.27 1010.46 1010.44 1010.33 1010.31 1010.45 1010.69 1010.79 1010.80 1010.92 1011.46 1011.70 1011.44 1011.68 1012.13 1012.20 1012.67 1013.44 1013.90 1014.13 1014.59 1014.24 1015.45 1016.49 1017.01 1017.42 1018.05 1018.40 1018.78 1019.02
1016.46 1016.30 1016.23 1015.95 1015.65 1015.31 1014.91 1014.57 1014.16 1014.04 1013.87 1013.64 1013.27 1012.94 1011.41 1011.07 1010.71 1010.34 1010.22 1010.24 1010.34 1010.43 1010.54 1010.90 1011.33 1011.64 1011.89 1011.68 1011.80 1012.27 1012.69 1013.06 1013.30 1014.07 1014.18 1014.30 1014.36 1015.66 1016.53 1017.11 1017.50 1018.11 1018.56 1018.87 1018.83
1016.42 1016.20 1015.95 1015.57 1015.40 1015.23 1014.32 1014.01 1014.33 1014.08 1013.38 1013.15 1012.85 1012.35 1011.68 1011.03 1010.84 1010.35 1010.23 1010.32 1010.61 1010.89 1011.25 1011.80 1011.62 1012.08 1012.54 1012.44 1012.57 1012.83 1013.05 1013.22 1013.60 1014.02 1013.97 1014.33 1014.77 1015.62 1016.61 1017.24 1017.70 1018.12 1018.40 1018.44 1018.77
1016.27 1015.94 1015.62 1015.42 1015.24 1015.05 1014.91 1014.13 1014.17 1014.13 1013.40 1012.75 1012.50 1012.16 1011.61 1011.30 1010.93 1010.47 1010.37 1010.63 1010.99 1011.52 1012.00 1012.16 1012.41 1013.18 1013.35 1013.25 1013.10 1013.17 1013.24 1013.45 1013.70 1014.01 1014.01 1014.43 1015.15 1015.90 1016.93 1017.49 1017.98 1018.23 1018.39 1018.56 1018.99
1016.14 1015.73 1015.43 1015.40 1015.10 1014.81 1014.48 1014.03 1013.87 1013.84 1013.48 1012.65 1012.14 1011.61 1011.24 1011.21 1010.94 1010.66 1010.58 1011.06 1011.49 1011.86 1012.26 1012.40 1013.35 1013.73 1013.61 1013.51 1013.40 1013.66 1013.73 1013.97 1014.23 1014.47 1014.75 1014.96 1015.50 1016.42 1017.26 1017.86 1018.26 1018.46 1018.50 1018.73 1018.91
1016.00 1015.57 1015.30 1015.28 1015.32 1014.73 1014.21 1013.83 1013.72 1013.72 1013.25 1012.58 1011.83 1011.09 1011.11 1010.95 1010.94 1010.84 1010.95 1011.24 1011.80 1012.35 1012.72 1013.14 1013.70 1013.71 1013.71 1013.82 1014.03 1014.00 1014.39 1014.64 1014.81 1015.01 1015.00 1015.82 1015.39 1016.42 1017.08 1017.42 1017.88 1018.02 1018.26 1018.43 1018.80
1015.81 1015.43 1015.16 1015.21 1014.70 1014.40 1014.07 1013.74 1013.72 1013.59 1012.95 1012.39 1011.42 1010.93 1010.96 1011.02 1011.19 1011.18 1011.30 1011.29 1012.05 1012.60 1013.11 1013.63 1013.68 1013.81 1013.80 1014.24 1014.49 1014.74 1015.02 1015.33 1015.46 1015.43 1015.73 1016.00 1016.13 1016.30 1017.03 1017.06 1017.23 1017.58 1017.88 1018.20 1018.43
1015.50 1015.30 1015.09 1014.85 1014.52 1013.80 1013.81 1013.60 1013.48 1013.59 1012.74 1011.96 1011.24 1011.01 1011.07 1011.26 1011.37 1011.47 1011.57 1011.86 1012.79 1012.98 1013.25 1013.76 1014.02 1014.00 1014.03 1014.57 1014.89 1015.20 1015.27 1015.79 1016.10 1015.97 1015.84 1016.56 1016.68 1015.94 1016.42 1016.68 1016.74 1017.19 1017.55 1017.84 1018.29
1015.30 1015.01 1015.03 1014.44 1014.23 1013.78 1013.60 1013.54 1013.91 1013.43 1012.99 1012.24 1011.56 1011.33 1011.33 1011.56 1011.79 1011.95 1012.29 1012.89 1013.23 1013.59 1013.79 1014.06 1014.14 1014.24 1014.43 1014.61 1015.15 1015.16 1015.52 1015.56 1015.75 1015.83 1016.07 1016.96 1016.81 1016.18 1016.43 1016.61 1016.63 1016.81 1017.27 1017.96 1018.70
1015.34 1015.02 1014.79 1014.40 1014.28 1013.95 1013.69 1014.02 1014.09 1013.66 1013.00 1012.41 1012.00 1011.83 1011.69 1011.88 1012.36 1012.66 1013.03 1013.56 1014.01 1014.07 1014.45 1014.35 1014.41 1014.46 1014.68 1014.84 1015.24 1015.99 1016.41 1016.56 1016.65 1016.71 1016.60 1016.99 1016.35 1016.04 1016.54 1016.99 1017.27 1017.33 1017.78 1018.62 1019.14
1015.30 1014.95 1014.73 1014.43 1014.17 1014.10 1014.19 1014.49 1014.24 1013.94 1013.32 1012.73 1012.31 1012.09 1012.17 1012.35 1012.55 1013.15 1013.64 1013.94 1014.26 1014.46 1014.68 1015.00 1014.91 1015.00 1015.15 1015.37 1015.93 1016.43 1016.98 1017.77 1017.72 1018.29 1017.58 1016.65 1016.54 1016.27 1016.61 1016.99 1017.46 1017.88 1018.46 1018.98 1019.47
1015.69 1015.20 1014.90 1014.57 1014.33 1014.27 1014.73 1014.90 1014.63 1014.17 1013.51 1012.99 1012.57 1012.55 1012.50 1012.78 1013.07 1013.54 1014.02 1014.57 1014.80 1015.07 1015.15 1015.53 1015.60 1015.67 1015.86 1015.97 1016.59 1016.68 1017.60 1018.04 1018.10 1017.88 1017.30 1016.54 1016.44 1015.89 1016.48 1016.77 1017.57 1018.18 1018.64 1019.15 1019.66
1016.01 1015.49 1014.84 1014.55 1014.31 1014.68 1015.06 1015.09 1014.64 1013.99 1013.69 1013.12 1012.76 1012.75 1012.94 1013.16 1013.59 1014.10 1014.59 1015.20 1015.26 1015.61 1015.75 1016.09 1016.33 1016.31 1016.41 1016.60 1016.80 1017.41 1017.52 1018.36 1018.65 1018.61 1017.99 1017.03 1016.00 1016.39 1016.78 1017.20 1017.48 1018.06 1018.66 1019.12 1019.52
1016.58 1015.94 1015.02 1014.74 1015.08 1015.73 1015.42 1015.24 1014.80 1013.98 1013.48 1013.14 1012.98 1012.96 1013.12 1013.58 1014.03 1014.55 1015.06 1015.55 1015.89 1015.98 1016.45 1017.21 1017.19 1016.94 1017.02 1017.38 1017.69 1017.71 1017.90 1018.29 1018.48 1018.75 1018.77 1018.33 1016.76 1016.84 1017.24 1017.51 1017.78 1018.22 1018.78 1019.19 1019.55
1017.70 1016.76 1015.33 1015.00 1015.52 1015.81 1015.71 1015.24 1014.79 1014.28 1013.74 1013.34 1013.14 1013.22 1013.50 1013.90 1014.63 1015.09 1015.65 1016.38 1016.38 1016.59 1017.09 1017.41 1018.02 1017.81 1017.60 1017.94 1017.95 1017.81 1018.26 1018.77 1019.11 1019.13 1018.49 1018.00 1016.57 1017.03 1017.48 1017.80 1018.16 1018.46 1018.88 1019.20 1019.52
1018.20 1017.44 1016.46 1016.04 1016.24 1015.83 1015.76 1015.47 1014.89 1014.51 1014.14 1013.76 1013.55 1013.50 1013.73 1014.29 1014.79 1015.37 1016.01 1016.65 1016.89 1017.29 1017.68 1017.62 1018.37 1018.06 1017.81 1017.74 1018.07 1018.01 1018.20 1018.52 1018.72 1018.73 1017.88 1017.31 1016.59 1016.58 1017.08 1017.47 1018.07 1018.48 1018.83 1018.98 1019.30
1018.79 1018.59 1018.40 1017.32 1017.06 1016.53 1016.15 1015.88 1015.38 1014.85 1014.51 1014.14 1013.90 1013.90 1013.87 1014.52 1015.01 1015.41 1016.12 1016.78 1017.28 1017.82 1018.10 1018.12 1018.36 1018.58 1018.22 1018.30 1018.35 1018.09 1018.02 1018.14 1018.36 1018.15 1018.05 1016.96 1016.97 1016.44 1016.87 1017.25 1017.90 1018.35 1018.71 1018.96 1019.13
1019.57 1019.21 1018.90 1018.21 1017.76 1017.12 1016.79 1016.36 1015.83 1015.58 1015.25 1014.57 1014.41 1014.45 1014.45 1014.49 1014.54 1014.95 1015.69 1016.38 1016.71 1017.76 1018.08 1018.68 1018.80 1018.86 1018.41 1018.41 1018.29 1017.94 1017.60 1017.72 1017.79 1017.82 1017.72 1017.43 1016.91 1016.77 1017.27 1017.63 1018.00 1018.31 1018.64 1018.87 1019.11
1020.45 1020.04 1019.20 1018.79 1018.11 1017.52 1017.09 1016.71 1016.34 1016.19 1015.62 1015.34 1015.18 1014.96 1014.98 1014.92 1014.82 1014.91 1015.24 1015.78 1016.21 1017.07 1018.00 1018.47 1018.75 1019.03 1018.49 1018.58 1018.26 1017.60 1016.84 1016.98 1017.13 1017.23 1017.26 1016.91 1016.77 1017.18 1017.39 1017.71 1017.93 1018.14 1018.51 1018.85 1019.26
Wind_Speed
6 6 6 6 6 7 8 9 10 11 11 11 11 11 11 10 9 2 3 4 2 5 3 2 2 4 2 3 2 2 1 3 4 6 7 9 6 2 2 8 3 2 3 6 12
6 6 6 6 6 7 8 10 10 11 11 11 11 11 10 8 2 2 5 1 4 2 3 5 3 1 4 2 2 1 1 4 4 7 10 15 9 10 6 6 4 6 8 12 11
6 6 6 6 7 7 8 10 11 11 11 12 11 11 10 3 1 2 7 7 5 1 2 1 1 3 3 2 2 2 2 1 4 6 16 14 13 6 12 9 11 16 14 12 12
6 6 6 6 7 8 9 10 11 11 12 12 11 11 8 3 5 1 4 7 7 3 1 1 3 3 2 2 2 3 0 1 6 6 13 14 11 9 7 6 7 11 15 13 10
6 6 6 6 7 8 10 11 12 12 11 11 11 10 3 1 2 1 6 6 5 3 1 1 3 2 3 2 4 1 3 4 6 9 8 9 6 6 4 2 12 15 14 12 10
6 6 7 7 8 9 11 12 12 12 11 11 11 10 2 4 2 5 4 3 3 3 2 3 1 1 4 2 2 4 6 7 6 7 5 9 5 2 2 4 14 14 12 9 7
6 7 8 8 8 10 11 11 11 12 11 10 8 3 0 1 4 4 5 4 4 3 1 2 3 0 1 2 2 4 5 7 7 4 4 5 3 2 3 7 11 10 9 9 7
7 7 8 9 9 10 12 12 12 13 11 8 3 2 4 2 3 4 5 3 2 3 2 2 4 5 3 2 3 3 4 7 4 1 4 5 15 2 5 9 10 10 8 8 8
7 8 9 9 9 10 13 12 13 10 5 2 1 2 3 8 3 3 1 2 2 3 4 5 3 4 1 3 3 5 4 4 4 3 4 5 8 7 9 10 11 10 9 8 8
8 8 8 8 9 10 14 8 1 3 2 3 1 2 2 4 4 6 0 1 3 1 2 6 5 3 3 1 4 3 4 4 5 3 6 11 17 10 12 12 13 11 9 9 8
10 8 7 8 9 9 8 1 0 1 2 0 1 2 4 7 2 2 2 1 3 7 3 5 4 5 4 5 7 7 4 1 2 3 3 3 9 11 13 13 12 10 10 8 8
11 9 8 8 8 7 3 4 2 2 3 1 4 5 4 2 2 2 0 2 4 4 0 3 6 3 6 6 6 3 2 3 2 3 4 4 5 5 11 11 10 11 10 11 11
12 9 8 7 7 2 2 3 2 3 0 3 3 3 2 4 1 2 2 2 5 5 3 4 5 4 1 3 3 2 2 1 4 5 1 4 2 3 7 8 9 11 12 11 13
13 10 7 7 0 1 0 2 4 6 3 3 2 2 3 1 2 1 2 2 3 6 5 6 2 1 2 3 1 1 1 4 5 4 7 5 3 2 2 12 13 14 15 14 14
14 10 6 3 1 1 4 5 6 1 3 1 2 2 1 3 1 3 4 4 3 4 3 3 6 2 1 2 1 2 3 2 2 2 3 3 5 4 1 8 14 14 16 15 15
16 9 4 1 1 1 5 3 0 2 1 1 1 3 5 2 1 1 3 7 3 4 7 3 1 0 1 2 3 2 2 3 2 1 3 3 4 3 2 4 7 13 15 15 12
18 8 4 1 2 6 2 2 2 1 2 2 1 3 4 3 2 2 3 4 1 3 1 1 2 2 1 3 4 3 4 3 1 0 2 2 4 3 4 6 7 12 14 10 4
19 2 1 1 5 7 2 3 1 1 3 3 3 2 6 5 2 2 3 4 2 2 3 3 3 1 2 2 2 4 2 2 4 4 6 1 2 2 1 1 2 6 5 5 3
11 1 1 5 3 0 4 1 3 4 2 5 1 2 2 3 3 3 0 4 2 3 4 5 3 1 5 2 3 3 1 2 4 1 4 2 2 6 5 4 3 6 6 5 3
2 1 2 7 3 4 3 3 3 4 4 1 1 1 3 2 5 5 6 1 3 1 1 4 2 1 3 2 9 2 7 2 1 3 4 2 4 3 7 9 5 6 6 4 4
2 2 2 5 1 4 2 3 3 5 5 2 1 2 2 3 3 3 5 2 0 3 2 3 0 2 3 2 1 3 2 4 1 2 3 5 3 2 4 6 9 8 6 4 5
2 2 3 2 3 1 3 4 2 4 3 4 2 1 2 2 3 2 4 1 4 1 3 2 3 2 2 2 4 2 1 1 2 3 0 3 7 2 3 4 3 7 4 2 3
2 2 2 1 3 2 1 2 3 3 3 1 3 1 1 3 3 2 3 2 3 3 4 6 2 1 2 3 2 1 3 4 4 0 6 5 6 3 2 4 4 3 2 4 4
1 1 2 4 2 4 3 1 2 1 2 2 1 1 3 3 5 4 3 2 2 3 5 5 3 4 3 2 1 4 3 3 3 3 7 11 17 13 6 9 6 4 3 4 5
3 2 1 2 2 2 1 2 1 3 1 2 2 2 4 4 3 3 3 3 3 5 3 2 3 3 3 4 4 7 9 7 8 9 7 13 13 17 12 7 6 4 4 6 8
1 1 1 2 1 2 1 2 3 1 2 2 3 4 2 5 6 8 7 4 3 3 3 1 3 2 3 0 3 7 11 10 10 6 10 12 14 4 1 3 5 5 6 8 8
1 1 3 2 1 2 2 3 3 1 2 2 3 2 3 4 4 3 3 4 5 7 5 4 6 4 3 2 6 8 6 4 3 4 4 5 4 2 5 7 6 8 7 9 7
Wind_Direction
310 307 321 329 327 325 319 319 314 309 308 305 312 317 316 322 306 231 239 215 145 166 201 298 98 23 76 93 83 159 98 94 141 174 127 155 139 154 73 138 135 173 156 75 112
298 306 317 317 317 318 314 309 304 303 306 305 308 307 308 323 277 242 293 273 179 211 27 21 35 48 93 65 65 326 210 169 156 156 156 162 159 138 172 157 119 132 94 116 121
297 301 306 311 310 309 304 300 298 300 302 301 305 306 311 291 267 22 326 198 198 79 79 65 46 48 75 16 54 133 255 108 152 178 153 156 152 157 155 174 164 170 149 148 148
302 308 308 304 302 302 297 295 293 295 297 301 307 311 319 231 92 318 345 153 147 131 48 5 55 103 112 56 69 227 310 4 131 149 150 160 138 145 202 128 142 150 150 156 165
304 303 296 300 303 301 293 290 290 294 297 304 308 320 270 19 77 103 108 123 122 144 198 344 44 122 66 106 143 7 83 70 99 112 103 132 131 139 186 95 136 141 155 169 170
310 303 304 303 299 293 289 288 288 292 296 301 311 310 328 85 129 118 140 158 195 194 179 193 39 153 97 77 57 44 101 115 66 94 79 141 124 188 181 171 147 155 161 169 165
318 315 306 297 292 288 287 287 287 289 294 295 307 330 343 125 160 247 200 213 189 199 217 199 155 37 115 89 35 99 103 102 42 54 84 138 149 188 138 173 153 166 163 154 162
328 315 302 296 295 294 290 288 285 288 294 291 257 207 265 197 228 290 170 129 164 211 275 112 141 98 24 119 46 71 97 163 24 66 145 238 223 164 159 176 163 162 159 158 165
333 314 303 302 301 299 293 290 285 285 268 264 202 16 337 317 38 345 275 55 156 122 57 91 78 59 86 112 120 41 91 116 107 52 172 222 243 191 175 184 168 166 165 166 162
333 319 309 307 300 304 299 274 303 283 171 215 195 248 339 328 304 325 52 31 53 20 85 39 52 78 72 205 89 75 116 89 133 70 202 214 247 184 184 187 177 170 167 181 177
337 325 314 302 305 319 331 199 291 135 31 238 283 255 288 299 275 348 12 83 41 52 58 28 95 77 63 85 111 120 112 104 180 171 273 235 272 214 184 189 185 181 182 180 196
343 335 317 307 307 312 268 81 114 41 327 321 265 277 259 265 335 339 64 79 49 90 138 99 94 88 101 86 100 106 100 38 275 355 315 353 20 148 191 200 201 190 194 203 212
339 336 318 313 303 291 17 107 94 185 65 304 238 261 298 173 113 337 48 99 76 93 79 108 111 149 89 74 60 51 35 291 304 347 79 318 148 173 194 202 201 207 213 218 227
337 335 324 306 156 349 78 340 296 191 60 290 227 259 165 143 4 346 55 96 76 106 90 82 129 178 58 76 339 285 259 283 287 290 317 346 302 191 210 218 221 214 215 223 227
337 333 322 275 105 124 343 336 132 222 131 105 183 44 85 170 123 48 11 49 119 115 219 102 170 161 59 26 258 16 6 8 359 150 216 39 271 100 223 225 223 218 219 223 233
341 332 296 190 228 354 331 142 311 33 140 65 156 149 141 63 99 78 75 53 98 75 50 76 310 340 82 105 50 335 243 68 92 175 194 24 312 130 272 293 224 212 218 221 233
342 334 183 303 31 341 328 46 54 171 330 77 141 164 158 143 108 44 60 51 118 138 79 43 11 330 206 227 164 14 350 326 211 337 348 23 253 350 297 254 236 208 209 215 201
337 355 279 303 316 344 41 63 169 282 274 338 14 106 183 147 76 83 111 138 81 94 125 198 208 343 10 12 353 49 349 311 310 311 324 199 232 67 223 350 294 252 202 144 142
320 12 27 346 329 124 74 78 230 211 312 328 303 141 140 136 120 125 123 168 161 191 186 175 233 17 41 58 325 126 251 56 113 120 259 307 227 242 209 199 165 137 141 139 150
19 29 19 328 346 66 84 227 245 230 314 313 263 224 160 135 162 192 180 139 146 352 297 162 216 66 97 139 58 292 125 213 114 286 293 228 269 290 217 222 190 178 174 172 173
44 85 1 339 42 62 175 227 269 255 234 245 275 138 112 132 132 151 161 105 344 80 88 125 141 121 237 22 306 155 185 67 47 309 285 301 304 176 264 284 248 206 186 190 204
18 105 15 309 69 22 161 195 264 286 243 262 223 166 143 135 109 128 150 45 339 145 85 42 105 255 358 354 290 343 26 178 227 186 147 309 285 162 281 306 236 182 187 200 226
31 293 346 275 165 186 214 245 257 319 303 288 216 129 84 114 112 122 114 18 8 89 149 175 55 310 182 170 140 173 119 104 93 56 210 265 266 156 224 221 198 204 234 243 258
337 309 353 59 17 145 153 110 307 292 238 315 147 97 113 91 35 138 127 34 42 90 92 95 129 199 250 304 304 256 197 204 234 240 285 252 290 288 274 236 212 228 256 285 288
11 95 14 105 70 101 124 141 163 337 17 326 152 235 157 130 119 150 148 143 76 144 73 96 187 208 261 245 234 267 268 249 235 255 250 292 285 291 307 244 231 264 261 285 292
23 188 110 91 320 161 1 173 165 278 265 22 56 356 193 158 187 190 161 199 182 139 107 55 150 189 262 329 240 276 278 261 253 258 255 277 282 318 302 210 224 256 269 281 290
48 137 280 43 93 177 159 166 180 232 187 256 327 265 230 260 261 345 109 120 153 160 147 152 150 175 275 332 310 267 236 212 238 212 247 269 331 228 223 234 251 267 270 272 285